Tracking 30692 objects as of 16-Jun-2025
HD Live streaming from Space Station
objects crossing your sky now

COSMOS 1275 DEB

Track COSMOS 1275 DEB now!
10-day predictions


NORAD ID: 27734
Int'l Code: 1981-053MV
Perigee: 820.5 km
Apogee: 964.2 km
Inclination: 83.1 °
Period: 102.7 minutes
Semi major axis: 7263 km
RCS: 0.0056 m2 (small)
Launch date: June 4, 1981
Source: Commonwealth of Independent States (former USSR) (CIS)
Launch site: PLESETSK MISSILE AND SPACE COMPLEX (PKMTR)

Note: This is SATELLITE DEBRIS
Your satellite tracking list
Your tracking list is empty




NASA's NSSDC Master Catalog

Two Line Element Set (TLE):
1 27734U 81053MP  25165.78290677  .00001533  00000-0  94592-3 0  9999
2 27734  83.1140 347.7451 0098912 325.3728  34.1028 14.02483721504865
Source of the keplerian elements: AFSPC